Temperature
18 18 18 18 18 18 18 18 18 18 18 18 18 18 18 18 18 18 17 18 17 17 17 17 17 17 17 17 17 17 17 17 17 17 16 16 16 16 16 16 16 16 16
18 18 18 18 18 18 18 18 18 18 18 18 17 17 17 17 17 17 17 18 18 17 17 17 17 17 17 17 17 17 17 17 17 17 16 16 16 16 16 16 16 16 16
18 18 18 18 18 18 18 18 18 18 18 18 18 18 18 17 17 17 17 17 17 17 17 17 17 17 17 17 17 17 17 17 17 17 17 16 16 16 16 16 16 16 16
18 18 18 18 18 18 18 18 18 18 18 18 18 18 18 18 17 17 17 17 17 17 17 17 17 17 17 17 17 17 17 17 17 17 16 16 16 16 16 16 16 16 16
18 18 18 18 18 18 18 18 18 18 18 18 18 18 18 18 18 18 17 17 17 17 17 17 17 17 17 17 17 17 17 17 17 17 16 16 16 16 16 16 16 16 16
18 18 18 18 18 18 18 18 17 17 18 18 18 18 18 18 18 18 18 18 17 17 17 17 17 17 17 17 17 17 17 17 17 17 16 16 16 16 16 16 16 16 16
18 18 18 18 18 18 18 18 18 18 18 18 18 18 18 18 18 18 18 18 18 17 17 17 17 17 17 17 17 17 17 17 16 16 16 16 16 16 16 16 16 16 16
18 18 18 18 18 18 18 18 18 18 18 18 18 19 19 19 18 18 18 18 18 17 17 17 17 17 17 17 17 17 17 17 16 16 16 16 16 16 16 16 16 16 16
18 18 18 18 18 18 18 18 18 17 18 18 18 18 19 19 19 18 18 18 17 17 17 17 17 17 16 16 16 16 17 16 16 16 16 16 16 16 16 16 16 16 16
18 18 18 18 18 17 18 17 17 17 17 18 18 17 18 18 18 19 18 18 17 17 17 17 17 16 16 16 16 16 16 16 16 16 16 16 16 16 16 16 16 16 16
18 18 18 18 18 17 17 17 17 17 17 17 17 17 17 17 18 18 18 18 18 17 17 17 16 16 16 16 16 16 16 16 16 16 16 16 16 16 16 16 16 15 15
18 18 17 17 17 17 17 17 17 17 17 17 17 17 17 17 18 18 18 18 18 18 17 16 16 16 16 16 16 16 16 16 16 16 16 16 15 15 15 15 15 15 15
18 17 17 17 17 17 17 17 17 17 17 17 17 17 17 17 17 17 17 18 17 17 17 16 16 16 16 15 15 15 15 16 16 16 16 15 15 15 15 15 15 15 15
17 17 17 17 17 17 17 17 16 16 16 16 16 16 16 16 16 16 16 17 17 18 17 16 16 16 15 15 15 15 15 15 15 15 15 15 15 15 15 15 15 15 15
17 17 17 17 17 17 17 17 16 16 16 16 16 16 16 16 16 16 16 16 16 17 17 16 16 15 15 15 15 15 15 15 15 15 15 15 15 15 15 15 15 15 15
17 17 17 17 16 16 16 16 16 16 16 15 15 15 15 15 16 15 15 15 15 16 16 16 15 15 15 15 15 14 15 15 15 15 15 15 15 15 15 15 15 14 15
17 17 17 17 16 16 16 16 16 16 15 15 15 15 15 15 15 15 15 15 15 15 15 15 15 15 14 14 14 14 14 14 15 15 15 15 15 15 15 14 14 14 14
17 17 17 16 16 16 16 15 15 15 15 15 15 15 15 15 15 15 15 15 15 15 15 15 15 15 14 14 14 14 14 14 14 14 14 14 14 14 14 14 14 14 14
16 16 16 16 16 16 15 15 15 15 15 14 14 14 14 14 14 14 14 14 15 15 14 14 14 14 14 14 14 14 14 14 14 14 14 14 14 14 14 14 14 14 14
16 16 16 16 16 16 15 15 15 15 14 14 14 14 14 14 14 14 14 14 14 14 14 14 14 14 14 14 14 14 14 14 14 14 14 14 14 14 14 14 13 13 13
16 16 15 15 15 15 15 15 15 14 14 14 14 14 14 14 14 14 14 14 14 14 14 14 14 14 14 13 14 14 14 14 14 14 14 14 14 14 13 13 13 13 13
15 15 15 15 15 15 15 15 15 14 14 14 14 14 14 14 14 14 14 14 13 13 13 13 14 13 13 13 13 13 13 13 13 13 13 13 13 13 13 13 13 13 13
15 15 15 14 14 14 14 14 14 14 14 14 13 13 14 14 13 13 13 13 13 13 13 13 13 13 13 13 13 13 13 13 13 13 13 13 13 13 13 13 13 13 13
15 15 14 14 14 14 14 14 14 14 13 13 13 13 13 13 13 13 13 13 13 13 13 12 12 12 12 12 12 12 12 13 13 12 12 12 13 13 12 12 12 12 12
14 14 14 14 14 14 14 14 14 13 13 13 13 13 13 13 13 13 13 12 12 12 13 12 12 12 12 12 12 12 12 13 13 13 12 12 12 12 12 12 12 12 12
14 14 13 13 13 13 13 13 13 13 13 13 13 13 13 13 13 13 12 12 12 12 12 12 12 12 12 12 12 12 12 12 13 13 12 12 12 12 12 12 12 12 12
Wind_Speed
3 3 3 2 2 2 2 2 2 2 2 2 1 1 1 1 2 2 4 8 7 6 5 5 6 6 5 6 7 8 9 9 10 10 11 11 10 10 10 10 10 10 11
3 2 2 2 2 2 2 1 2 2 1 2 1 1 0 0 1 2 2 6 8 6 5 5 5 5 5 5 6 7 8 9 9 9 10 10 10 10 11 11 11 10 10
2 1 2 2 3 2 2 1 2 1 1 2 1 1 0 0 0 1 2 2 5 8 7 6 5 5 5 5 5 6 8 9 9 10 11 11 11 11 11 11 11 11 10
3 1 2 3 2 2 2 1 1 2 1 1 1 0 0 1 0 1 2 2 2 3 6 7 6 5 6 5 6 6 6 7 9 9 10 10 10 11 11 11 10 11 11
3 2 2 3 2 2 2 2 3 1 1 1 1 1 0 0 0 1 2 2 2 2 2 6 8 6 6 5 5 5 5 6 7 9 10 10 10 10 10 11 11 11 11
3 2 2 2 2 2 2 3 2 1 1 1 0 1 0 1 0 0 1 1 2 3 3 3 4 6 7 6 6 6 5 5 6 7 9 10 10 10 10 11 11 11 12
2 2 2 2 1 2 2 2 1 1 1 1 1 1 1 2 2 1 0 1 1 0 1 1 2 2 4 7 7 6 6 6 6 7 8 8 9 10 11 12 12 12 13
2 2 2 1 2 2 2 2 1 1 1 1 2 2 0 2 2 2 1 1 0 0 1 1 1 1 2 2 4 5 6 6 6 7 7 8 8 9 10 10 11 12 13
2 2 2 2 2 1 2 2 1 1 2 1 2 2 2 1 1 2 1 0 1 1 1 1 1 1 2 1 1 2 4 5 5 6 7 7 8 9 9 10 10 11 12
1 1 1 1 1 1 1 1 2 1 2 1 0 1 2 2 2 1 2 1 1 1 1 2 1 1 1 1 1 3 2 3 4 5 6 6 7 8 9 10 10 11 11
0 0 0 1 1 1 1 2 2 3 2 2 2 1 1 2 3 3 2 2 1 1 1 1 1 1 1 1 0 3 3 1 3 4 5 6 7 7 8 9 10 10 11
0 0 0 1 1 1 1 1 2 2 3 3 3 3 2 2 2 3 3 3 3 2 1 1 2 1 1 1 1 5 2 0 2 3 4 5 6 7 8 9 9 10 10
1 0 1 1 2 1 1 1 1 2 2 3 3 3 3 3 3 4 4 4 3 2 1 1 1 1 2 2 1 3 2 1 1 1 3 4 5 5 6 7 8 8 9
1 1 0 1 1 2 2 1 2 1 2 3 3 3 3 2 3 3 4 4 5 3 1 1 1 1 2 2 3 2 1 2 1 2 3 3 5 5 6 7 7 7 8
1 1 1 1 1 1 2 2 1 2 2 3 2 2 3 2 2 3 3 4 5 4 3 1 1 1 2 2 1 3 3 1 3 3 4 4 4 5 6 6 6 6 7
1 1 1 1 1 1 1 2 1 1 2 2 2 3 3 3 3 3 3 3 4 4 4 3 2 2 2 3 1 3 4 3 6 5 5 5 5 6 6 6 6 6 7
1 1 1 1 1 1 1 2 2 2 2 2 2 2 2 4 3 3 3 3 3 3 4 4 3 2 2 4 3 4 4 4 4 5 5 5 6 6 6 6 6 7 7
2 1 1 1 1 1 2 2 3 2 2 2 2 2 3 2 3 4 4 4 3 3 5 5 4 4 3 4 4 5 4 4 4 4 6 6 6 6 6 6 6 6 8
1 1 1 1 1 1 2 2 2 2 2 2 2 3 3 3 3 3 4 4 4 4 4 5 5 3 4 3 4 4 4 4 5 3 7 8 7 7 6 6 6 6 7
1 1 1 1 2 1 1 1 2 2 3 3 3 3 3 4 4 4 4 4 4 4 4 5 5 4 4 3 4 4 4 3 4 4 3 4 6 8 8 8 7 6 6
1 1 1 2 2 2 1 1 2 2 2 3 3 3 3 3 4 4 5 4 4 4 5 5 5 5 4 4 4 4 5 5 4 4 4 4 4 4 5 7 7 7 6
1 1 2 2 2 1 2 2 3 3 3 3 3 3 3 2 2 2 3 4 5 5 6 6 6 6 6 6 5 5 5 5 5 3 4 5 4 4 4 4 3 5 6
1 2 2 2 1 0 2 1 3 4 4 4 4 4 4 3 3 4 3 5 5 6 7 7 7 7 7 6 6 6 5 6 6 5 5 6 4 5 4 2 4 5 6
2 1 2 1 2 1 1 1 3 4 4 4 4 4 5 5 4 4 5 5 6 5 6 6 7 8 8 7 7 8 8 7 7 5 5 6 4 5 4 2 3 5 6
2 2 2 2 2 2 0 2 4 4 3 4 4 5 5 5 3 4 5 6 7 6 5 5 6 7 7 8 7 6 6 6 6 5 3 5 5 4 4 3 2 6 6
2 2 2 2 3 3 1 2 4 4 4 4 4 4 3 4 4 5 6 6 7 7 7 6 6 7 8 7 8 7 7 6 6 5 3 4 5 4 4 3 1 2 4
Wind_Direction
66 62 52 54 59 80 108 106 99 103 112 118 137 136 168 195 190 185 148 155 174 192 203 205 203 211 214 214 214 213 218 224 226 224 221 215 211 209 210 210 210 208 204
64 59 62 55 54 56 59 68 99 121 132 121 129 130 227 216 174 200 180 162 174 187 200 201 200 205 210 210 214 216 218 221 224 219 212 209 213 215 215 215 211 206 204
77 67 62 61 50 55 69 76 80 105 128 129 115 105 137 202 145 211 208 196 177 179 187 193 199 207 212 207 213 219 221 219 218 216 210 211 213 214 216 215 214 210 209
54 44 58 54 44 50 58 74 60 71 72 85 91 51 148 149 185 206 202 193 194 182 178 182 196 206 212 209 214 219 217 213 214 215 213 215 216 216 216 214 215 215 213
44 33 42 43 32 38 46 38 66 46 68 56 104 134 104 113 171 215 203 200 190 209 206 169 189 200 202 202 207 214 216 210 212 214 215 217 218 219 218 217 217 218 216
54 33 59 55 37 48 46 47 58 56 12 328 17 77 71 88 107 81 229 182 193 215 214 207 201 195 196 201 212 221 222 215 213 213 214 217 218 218 219 219 219 219 217
58 42 40 67 52 68 57 53 43 93 24 333 268 171 155 147 122 125 78 26 96 171 221 225 248 239 195 196 206 221 226 216 214 212 213 217 220 221 221 220 221 222 218
43 56 47 36 60 75 78 57 39 348 29 19 320 307 200 159 171 129 121 147 13 303 250 223 232 234 260 226 185 212 228 219 218 218 216 220 221 219 221 220 223 224 221
57 42 38 23 40 46 63 39 25 7 339 351 354 325 310 357 348 155 150 113 6 349 311 312 249 246 269 278 258 178 202 211 219 221 222 224 226 223 222 223 225 226 223
63 56 36 32 19 32 51 343 45 355 329 330 10 340 333 342 301 276 193 171 200 293 311 305 305 271 286 275 40 64 121 210 221 226 231 229 227 226 225 225 228 229 228
87 9 12 3 359 14 33 3 352 334 333 332 327 308 286 258 267 283 295 293 260 248 278 294 306 281 293 282 253 80 89 212 230 236 238 236 232 228 227 228 231 234 232
194 5 323 329 318 347 2 316 317 333 334 331 314 308 304 299 306 298 288 288 294 287 281 303 294 295 294 299 13 75 98 106 235 226 229 238 237 233 230 233 236 237 237
270 13 348 343 339 352 334 298 278 319 320 315 305 309 313 315 316 306 297 301 298 287 257 250 291 307 311 319 1 82 116 126 314 266 244 243 243 243 243 244 245 243 243
300 6 332 325 334 322 316 305 298 300 311 308 313 314 304 317 308 311 306 303 296 289 265 303 312 325 336 321 20 275 231 157 222 266 262 259 251 250 252 251 249 250 250
273 248 255 263 284 302 312 288 315 327 318 302 303 294 298 309 300 301 301 300 300 299 307 305 298 326 306 306 350 284 285 175 217 246 253 253 254 255 255 250 249 247 249
278 255 248 264 285 299 308 292 285 300 291 299 309 326 313 314 310 298 296 294 295 296 298 316 311 303 316 300 268 292 289 231 217 227 244 247 248 249 253 248 246 245 244
232 237 241 270 294 302 297 291 299 298 290 305 307 312 312 313 306 303 298 291 287 285 285 293 294 305 290 293 296 288 279 269 237 195 217 235 241 244 248 248 247 246 244
228 220 222 236 268 284 289 287 293 295 294 306 312 312 309 302 301 303 304 298 294 284 279 286 290 293 289 284 291 280 278 271 271 178 198 221 231 238 245 248 252 249 245
225 216 211 230 253 275 287 285 284 275 284 298 307 305 303 305 305 310 305 306 298 289 280 280 287 298 295 300 296 286 282 280 272 220 198 211 217 227 238 241 246 250 246
240 229 223 235 247 254 267 282 281 280 286 291 293 292 299 303 305 307 303 303 302 296 284 277 282 286 296 304 293 289 293 290 287 289 275 249 221 216 227 228 231 237 242
279 265 254 252 254 244 263 264 264 268 276 282 286 293 304 323 335 321 316 319 313 300 294 288 285 285 293 308 302 297 293 294 293 289 289 275 250 247 235 220 222 230 233
294 287 280 266 259 261 69 23 297 276 273 275 281 287 289 286 289 260 288 302 304 294 298 295 290 294 293 293 301 295 295 298 302 301 293 287 277 271 263 248 199 203 223
281 268 266 260 257 310 73 19 305 281 281 284 285 287 292 304 293 294 261 240 258 258 264 277 286 291 293 300 300 292 294 293 292 296 290 284 277 273 270 260 155 192 212
283 268 259 259 259 258 128 260 284 266 274 283 288 286 289 298 303 306 296 290 284 277 265 263 272 279 287 297 290 281 280 275 273 271 262 277 282 281 283 269 176 192 203
293 282 276 275 272 277 269 272 278 264 266 278 286 290 287 288 337 319 291 289 290 286 265 251 258 264 275 278 278 283 285 280 285 283 263 273 280 280 272 258 205 182 195
286 283 298 293 284 284 283 290 287 276 280 286 287 288 298 302 324 314 292 291 291 295 298 289 266 253 257 252 232 248 272 278 287 286 285 276 279 282 273 265 264 217 206
Height
1513 1513 1513 1513 1514 1514 1514 1513 1513 1514 1514 1514 1515 1516 1516 1516 1516 1516 1516 1515 1516 1516 1517 1518 1518 1518 1518 1519 1520 1521 1522 1523 1524 1525 1526 1527 1528 1529 1531 1532 1533 1534 1536
1514 1514 1514 1514 1515 1515 1515 1514 1514 1514 1515 1515 1515 1515 1516 1516 1516 1515 1516 1515 1515 1516 1516 1517 1517 1517 1518 1518 1519 1519 1520 1521 1522 1522 1523 1524 1525 1527 1528 1529 1531 1532 1533
1515 1515 1516 1516 1515 1515 1515 1515 1515 1515 1515 1516 1516 1516 1516 1515 1515 1515 1515 1515 1516 1515 1515 1516 1516 1517 1517 1517 1517 1518 1518 1519 1519 1520 1521 1522 1523 1524 1525 1527 1528 1529 1530
1517 1516 1517 1517 1516 1516 1516 1516 1516 1516 1516 1516 1516 1516 1516 1515 1515 1515 1515 1515 1515 1516 1515 1515 1515 1515 1516 1516 1516 1516 1516 1517 1517 1518 1518 1519 1520 1521 1523 1524 1525 1526 1527
1518 1518 1517 1517 1517 1517 1517 1517 1517 1517 1517 1516 1516 1516 1516 1515 1515 1515 1515 1515 1515 1515 1515 1514 1514 1514 1514 1514 1514 1514 1514 1514 1515 1515 1516 1517 1518 1519 1520 1521 1522 1523 1524
1518 1518 1518 1517 1517 1518 1517 1517 1517 1516 1517 1516 1517 1516 1516 1515 1515 1514 1514 1515 1514 1514 1514 1514 1514 1513 1512 1512 1512 1512 1512 1512 1512 1513 1514 1514 1515 1516 1517 1518 1519 1520 1521
1519 1518 1519 1518 1517 1517 1517 1517 1517 1517 1517 1516 1517 1516 1516 1515 1515 1514 1514 1514 1514 1513 1513 1512 1513 1512 1511 1510 1509 1509 1509 1509 1510 1510 1511 1512 1512 1513 1514 1515 1515 1516 1517
1519 1519 1518 1518 1517 1517 1517 1516 1516 1517 1517 1516 1516 1516 1515 1516 1515 1514 1514 1513 1513 1513 1512 1512 1511 1510 1510 1508 1506 1505 1504 1506 1507 1508 1508 1509 1509 1510 1511 1511 1512 1512 1513
1519 1519 1518 1518 1517 1517 1517 1516 1516 1516 1516 1516 1516 1516 1515 1514 1514 1514 1513 1513 1512 1511 1511 1511 1510 1509 1508 1507 1505 1502 1501 1502 1504 1505 1505 1506 1506 1507 1507 1508 1508 1508 1509
1519 1519 1518 1518 1517 1517 1517 1517 1516 1516 1515 1516 1515 1514 1515 1514 1514 1513 1513 1512 1511 1510 1509 1509 1508 1507 1506 1505 1504 1502 1501 1501 1502 1502 1503 1503 1503 1503 1504 1504 1504 1505 1505
1519 1519 1518 1517 1517 1517 1516 1516 1515 1515 1515 1515 1514 1514 1514 1513 1513 1513 1512 1511 1510 1509 1508 1508 1507 1506 1505 1504 1503 1501 1500 1500 1500 1500 1500 1500 1500 1500 1500 1500 1501 1501 1501
1519 1518 1518 1517 1516 1516 1515 1515 1514 1514 1513 1513 1513 1513 1513 1513 1512 1511 1511 1510 1509 1509 1507 1506 1505 1505 1504 1503 1502 1500 1499 1498 1497 1497 1497 1497 1497 1497 1497 1497 1497 1497 1497
1519 1517 1517 1516 1515 1515 1514 1514 1513 1513 1512 1512 1512 1512 1512 1511 1511 1510 1509 1508 1507 1507 1506 1505 1504 1503 1502 1501 1500 1498 1497 1496 1495 1495 1494 1494 1494 1494 1494 1494 1494 1494 1494
1518 1516 1515 1515 1515 1514 1513 1513 1513 1512 1511 1511 1511 1510 1510 1509 1509 1508 1508 1507 1506 1505 1504 1504 1503 1501 1500 1499 1498 1496 1495 1494 1493 1493 1492 1492 1492 1492 1491 1491 1491 1490 1490
1516 1515 1514 1514 1513 1513 1512 1511 1511 1510 1510 1510 1510 1509 1509 1508 1507 1507 1506 1506 1506 1504 1503 1502 1501 1500 1498 1497 1495 1494 1494 1492 1492 1491 1490 1490 1489 1489 1488 1488 1487 1487 1487
1513 1513 1513 1513 1512 1512 1511 1510 1510 1509 1508 1508 1508 1507 1506 1506 1505 1505 1504 1504 1503 1503 1501 1500 1499 1498 1496 1496 1494 1492 1491 1490 1489 1488 1488 1487 1486 1486 1485 1485 1485 1484 1484
1511 1511 1511 1511 1510 1510 1509 1509 1509 1508 1507 1506 1506 1506 1505 1504 1504 1503 1502 1501 1501 1500 1499 1498 1497 1496 1494 1493 1491 1490 1489 1488 1487 1486 1485 1484 1483 1483 1482 1482 1481 1481 1481
1510 1509 1509 1509 1509 1508 1508 1508 1507 1507 1506 1505 1504 1504 1503 1503 1501 1501 1500 1499 1498 1497 1497 1496 1495 1494 1492 1490 1489 1487 1487 1486 1484 1483 1482 1481 1480 1479 1479 1478 1477 1477 1477
1508 1507 1507 1507 1506 1506 1506 1506 1506 1505 1504 1503 1503 1502 1501 1500 1499 1499 1497 1497 1496 1495 1494 1493 1492 1491 1490 1488 1486 1485 1484 1482 1482 1481 1479 1478 1477 1476 1475 1475 1474 1473 1472
1506 1505 1505 1505 1504 1504 1503 1503 1503 1503 1502 1501 1500 1500 1499 1498 1497 1496 1495 1494 1494 1493 1492 1491 1489 1488 1487 1485 1484 1483 1481 1480 1479 1478 1477 1475 1474 1473 1472 1471 1470 1470 1469
1504 1503 1503 1503 1502 1502 1501 1501 1501 1500 1500 1499 1498 1498 1497 1496 1494 1494 1493 1492 1491 1490 1490 1488 1487 1486 1485 1483 1482 1481 1479 1478 1476 1475 1474 1473 1472 1470 1469 1468 1467 1466 1466
1502 1502 1501 1500 1500 1500 1499 1499 1498 1498 1498 1497 1496 1495 1495 1493 1492 1491 1490 1489 1489 1488 1487 1486 1485 1483 1482 1481 1479 1478 1477 1475 1474 1473 1471 1470 1469 1467 1466 1465 1464 1463 1463
1500 1499 1499 1498 1498 1498 1497 1497 1496 1496 1495 1494 1494 1493 1493 1492 1490 1489 1488 1487 1486 1485 1484 1483 1482 1480 1479 1478 1477 1475 1474 1472 1471 1470 1469 1467 1466 1464 1463 1462 1461 1460 1459
1498 1497 1497 1496 1496 1495 1495 1494 1494 1493 1493 1492 1491 1490 1490 1489 1488 1486 1486 1484 1483 1482 1481 1479 1478 1477 1476 1475 1473 1472 1471 1469 1468 1466 1466 1465 1463 1462 1461 1459 1458 1457 1456
1496 1495 1495 1494 1494 1493 1493 1492 1491 1491 1490 1489 1489 1488 1487 1486 1485 1484 1483 1481 1480 1479 1478 1476 1474 1473 1472 1471 1470 1469 1468 1466 1464 1464 1463 1462 1460 1459 1457 1456 1455 1454 1453
1495 1494 1493 1492 1492 1491 1491 1490 1489 1489 1488 1487 1486 1485 1484 1483 1482 1481 1479 1478 1477 1476 1475 1473 1471 1470 1469 1467 1466 1465 1464 1463 1461 1460 1459 1458 1457 1456 1455 1454 1453 1452 1451